OpenBCM V1.07b12 (Linux)

Packet Radio Mailbox

DB0FHN

[JN59NK Nuernberg]

 Login: GUEST





  
I0OJJ  > KEPS     10.02.25 06:03l 336 Lines 15903 Bytes #999 (0) @ AMSAT
BID : ORB25041.1
Read: DJ6UX GUEST
Subj: 2Line Orbital Elements 25041.AMSAT
Path: DB0FHN<DB0LHR<OK1TOR<OE2XZR<OE6XPE<DB0ERF<IZ3LSV<I0OJJ<I0OJJ
Sent: 250210/0345z @:I0OJJ.ITA.EU [Rome] obcm1.08-6-g5b69

>From i0ojj%i0ojj.ita.eu@i0ojj.ampr.org Mon Feb 10 04:45:09 2025
Received: from i0ojj.ampr.org by i0ojj.ampr.org (JNOS2.0p.6) with SMTP
	id AA17020682 ; Mon, 10 Feb 2025 04:45:09 +0100
Message-Id: <ORB25041.1@i0ojj.bbs>
>From: i0ojj@i0ojj.ita.eu
X-JNOS-User-Port: Uplink   (I0OJJ-1 on port hub)  ->  Sending message

From: I0OJJ @ I0OJJ.ITA.EU (Gustavo)
To:   KEPS @ AMSAT
X-Info: This message was generated automatically


QST de W1STR

AMSAT Orbital Elements for Amateur Satellites in TLE Format
>From Orbital Analysis Office
New England Sci-Tech STEM Education Center
Natick, MA February 10, 2025
To all radio amateurs


These element sets describe the orbits of various satellites 
in use by the amateur radio community. For details see:
www.amsat.org/keplerian-elements-formats/

A daily update of element sets is available at:
www.amsat.org/tle/daily-bulletin.txt
or without bulletin text:
www.amsat.org/tle/dailytle.txt


AO-07
1 07530U 74089B   25040.86942027 -.00000017  00000-0  18134-3 0  9991
2 07530 101.9934  43.8593 0012145 351.9893  73.8779 12.53685980299061
UO-11
1 14781U 84021B   25040.85653513  .00003426  00000-0  37278-3 0  9998
2 14781  97.7383   9.7610 0008455  24.1801 335.9811 14.88660188204827
AO-27
1 22825U 93061C   25040.14398467  .00000229  00000-0  10492-3 0  9993
2 22825  98.7553 101.0078 0009468 104.6736 255.5496 14.30725158636499
FO-29
1 24278U 96046B   25040.60588919  .00000005  00000-0  44061-4 0  9999
2 24278  98.5876 310.2181 0349049 293.4592  63.0220 13.53236575406549
NOAA-15
1 25338U 98030A   25040.83567661  .00000372  00000-0  17089-3 0  9994
2 25338  98.5486  68.7772 0010054 356.0501   4.0598 14.26879322391328
GO-32
1 25397U 98043D   25040.84548171  .00000238  00000-0  12330-3 0  9994
2 25397  98.9564  17.5568 0001436 148.4151 211.7113 14.24250709381461
ISS
1 25544U 98067A   25040.72932104  .00010771  00000-0  19674-3 0  9995
2 25544  51.6371 218.3265 0003560 293.5013 159.2721 15.49953368495399
NO-44
1 26931U 01043C   25040.34920774  .00000379  00000-0  17337-3 0  9999
2 26931  67.0500  78.6747 0006059 263.5569  96.4843 14.31612857219897
SO-50
1 27607U 02058C   25040.58673478  .00002601  00000-0  34901-3 0  9995
2 27607  64.5525 210.7474 0041832   4.5652 355.5826 14.80919949191454
CO-55
1 27844U 03031E   25040.59093097  .00000744  00000-0  34424-3 0  9990
2 27844  98.6788  50.4080 0009854 169.4340 190.7047 14.23811298121565
CO-57
1 27848U 03031J   25040.55452510  .00000627  00000-0  29678-3 0  9994
2 27848  98.6815  50.4662 0009424 186.2549 173.8513 14.23173092121346
RS-22
1 27939U 03042A   25040.84606593  .00002516  00000-0  41118-3 0  9993
2 27939  98.3127 207.5283 0012143  33.3243  73.9341 14.71735166143217
NOAA-18
1 28654U 05018A   25040.78730662  .00000381  00000-0  22566-3 0  9995
2 28654  98.8523 121.5810 0015160 109.2698 251.0116 14.13511015 16823
CO-58
1 28895U 05043F   25040.36294141  .00003137  00000-0  52927-3 0  9997
2 28895  98.2278 183.4164 0014379 330.9844  29.0561 14.70120248 29274
CO-65
1 32785U 08021C   25040.40546302  .00008564  00000-0  65577-3 0  9997
2 32785  97.7666  10.9695 0008859 259.7620 100.2606 15.02090003911027
AAUSAT2
1 32788U 08021F   25040.43278141  .00081031  00000-0  16030-2 0  9995
2 32788  97.6052  31.8628 0007430  82.4699 277.7394 15.46783764914586
CO-66
1 32791U 08021J   25040.81468186  .00018316  00000-0  10183-2 0  9990
2 32791  97.7170  18.6724 0003519 184.4405 175.6795 15.13734412912426
RS-30
1 32953U 08025A   25040.80971864  .00000032  00000-0  16023-3 0  9991
2 32953  82.5043 301.6890 0019046 309.4484  50.4910 12.43158469758658
NOAA-19
1 33591U 09005A   25040.77423269  .00000344  00000-0  20767-3 0  9992
2 33591  99.0146 104.7304 0013356 345.9505  14.1294 14.13281213825181
SRMSAT
1 37841U 11058D   25040.55694855  .00000626  00000-0  19640-3 0  9993
2 37841  19.9709 160.8208 0011641 184.2378 269.5841 14.11357535688137
ZACUBE-1
1 39417U 13066B   25040.83898037  .00008486  00000-0  77396-3 0  9998
2 39417  97.7656 358.7663 0048310  91.7256 268.9498 14.94446434607013
Delfi-N3xt
1 39428U 13066N   25040.32104876  .00012392  00000-0  13428-2 0  9991
2 39428  97.8381 319.5478 0091011  36.9268 323.8166 14.85313616601203
GOMX-1
1 39430U 13066Q   25040.73575190  .00004038  00000-0  64217-3 0  9991
2 39430  97.7006 266.6936 0133446 215.3783 143.8515 14.66758168597839
LO-74
1 39440U 13066AA  25040.60098528  .00006794  00000-0  71795-3 0  9993
2 39440  97.8377 346.2347 0063142 214.1157 145.5995 14.88074519603586
AO-73
1 39444U 13066AE  25040.81614467  .00012156  00000-0  98560-3 0  9994
2 39444  97.7486   2.7609 0043503  69.0458 291.5412 14.99075172606212
DTUSAT-2
1 40030U 14033W   25040.37276905  .00010747  00000-0  75578-3 0  9992
2 40030  98.0416   6.7340 0011963 103.8650 256.3907 15.05219323578294
EO-80
1 40032U 14033Y   25040.66562548  .00011265  00000-0  79033-3 0  9993
2 40032  98.0288   6.8560 0010631  54.2853 305.9359 15.05308545578830
XW-2C
1 40906U 15049H   25040.81695878  .00917511  45842-3  12197-2 0  9993
2 40906  97.4426  76.0153 0004095 170.1081 190.0282 16.06788529521531
LILACSAT-2
1 40908U 15049K   25040.75362640  .00014926  00000-0  44552-3 0  9999
2 40908  97.5165  58.4844 0008714 220.7406 139.3186 15.34689321519828
IO-86
1 40931U 15052B   25038.81889873  .00001817  00000-0  15548-3 0  9993
2 40931   6.0001 108.1159 0012838 187.7041 172.2889 14.78568669506492
Horyu-4
1 41340U 16012D   25040.50964053  .00024423  00000-0  83068-3 0  9998
2 41340  30.9968 215.0775 0005942 258.1882 101.8095 15.29227906494341
Lapan A3
1 41603U 16040E   25040.82089363  .00005724  00000-0  20899-3 0  9994
2 41603  97.1391  50.2222 0010651 346.8368  13.2593 15.28446454479488
CAS-2T
1 41847U 16066G   25040.81371518  .00003589  00000-0  52043-3 0  9990
2 41847  98.4339 116.3024 0348372 180.5013 179.5879 14.42893172433742
CAS-4B
1 42759U 17034B   25040.80858593  .00043921  00000-0  84809-3 0  9990
2 42759  43.0123 306.9566 0016345 180.6949 179.3890 15.46942498423955
CAS-4A
1 42761U 17034D   25040.83991301  .00043338  00000-0  82365-3 0  9998
2 42761  43.0161 304.7417 0017725 187.1675 172.8933 15.47379287423971
TechnoSat
1 42829U 17042E   25040.39008121  .00004774  00000-0  38520-3 0  9997
2 42829  97.3894 214.9223 0012152 342.6431  17.4377 15.00254609412697
AO-91
1 43017U 17073E   25040.58219161  .00013379  00000-0  72834-3 0  9997
2 43017  97.5498 274.4797 0181459 214.7102 144.2175 15.01471107391187
S-Net D
1 43186U 18014G   25040.29591181  .00007102  00000-0  44445-3 0  9997
2 43186  97.5738 304.5247 0007708 281.1198  78.9164 15.09684555384211
S-Net B
1 43187U 18014H   25040.29990714  .00006884  00000-0  43107-3 0  9993
2 43187  97.5744 304.4942 0008350 275.0534  84.9742 15.09670862384215
S-Net A
1 43188U 18014J   25040.69435521  .00008315  00000-0  51936-3 0  9998
2 43188  97.5751 305.0192 0008334 274.3627  85.6650 15.09697017384278
S-Net C
1 43189U 18014K   25040.63344299  .00007613  00000-0  47604-3 0  9991
2 43189  97.5769 304.9524 0009830 265.3769  94.6337 15.09675364382815
Ten-Koh
1 43677U 18084G   25040.72854077  .00005254  00000-0  43457-3 0  9991
2 43677  98.0827 208.2460 0011283 307.3159  52.7033 14.99330140342270
PO-101
1 43678U 18084H   25040.74545524  .00003460  00000-0  30392-3 0  9999
2 43678  98.0911 212.4327 0007847 331.6703  28.4090 14.97264655342447
QO-100
1 43700U 18090A   25040.54658720  .00000134  00000-0  00000-0 0  9998
2 43700   0.0279 104.9537 0001335 226.2585  31.1926  1.00271560 22733
MinXSS-2
1 43758U 18099A   25040.56376310  .00020001  00000-0  93041-3 0  9999
2 43758  97.5207 106.5866 0012754 213.9518 146.0902 15.19915254338704
AO-95
1 43770U 18099N   25040.68918327  .00012876  00000-0  71918-3 0  9996
2 43770  97.5116 100.2740 0010292 267.8281  92.1772 15.13606633338392
RANGE-A
1 43773U 18099R   25040.65041187  .00006627  00000-0  44439-3 0  9992
2 43773  97.4684  92.5589 0010456 239.4501 120.5695 15.07133255338141
MOVE-II
1 43780U 18099Y   25040.13904904  .00063773  00000-0  15353-2 0  9995
2 43780  97.4853 110.2181 0004047 222.2442 137.8493 15.41044823339076
SNUSat 2
1 43782U 18099AA  25040.39252511  .00008917  00000-0  52864-3 0  9993
2 43782  97.4799  97.6599 0012314 203.8638 156.2023 15.11537057338320
SnugLite
1 43784U 18099AC  25040.14908082  .00012795  00000-0  70986-3 0  9993
2 43784  97.4619  96.7887 0003228 194.6706 165.4433 15.13886625338394
ITASat 1
1 43786U 18099AE  25040.67827062  .00009575  00000-0  58658-3 0  9995
2 43786  97.4770  97.7661 0013746 258.9235 101.0449 15.10311025338344
EAGLET 1
1 43790U 18099AJ  25040.60304865  .00006161  00000-0  41201-3 0  9998
2 43790  97.4962  97.9793 0011224 236.7832 123.2321 15.07259046337980
ESEO
1 43792U 18099AL  25040.70666724  .00002739  00000-0  21457-3 0  9994
2 43792  97.4620  92.8804 0010117 198.0786 162.0080 15.01767034337829
CSIM
1 43793U 18099AM  25040.45021534  .00062518  00000-0  15026-2 0  9996
2 43793  97.5030 112.5019 0007393 198.0816 162.0168 15.41081881338966
JO-97
1 43803U 18099AX  25040.15432788  .00015163  00000-0  78240-3 0  9994
2 43803  97.4867 100.5499 0007755 197.4491 162.6477 15.16402028338497
Suomi 100
1 43804U 18099AY  25040.72626634  .00013816  00000-0  74888-3 0  9990
2 43804  97.4930 100.6935 0013008 200.0368 160.0355 15.14632684338530
ISAT
1 43879U 18111D   25040.48578969  .00022235  00000-0  94977-3 0  9993
2 43879  97.6045 312.7780 0007716 256.7056 103.3320 15.22862508335376
UWE-4
1 43880U 18111E   25040.26845880  .00017420  00000-0  80389-3 0  9992
2 43880  97.5982 311.7535 0011149 271.8986  88.0972 15.20239841335311
Sparrow
1 43881U 18111F   25040.55122474  .00024911  00000-0  10364-2 0  9990
2 43881  97.6168 315.3103 0005968 312.6703  47.4031 15.23741872335469
